Location: Newark
(3.0500°N, 36.0167°E)
Time: 18:12:30
(UTC+00:00)

Courier 1B Rocket - Visible Passes

Search period start: 24 August 2019 00:00
Search period end: 03 September 2019 00:00
Orbit: 920 x 1202 km, 28.3° (Epoch: 24 August)

Date Brightness Start Highest point End Pass type
(mag) Time Alt. Az. Time Alt. Az. Time Alt. Az.
24 Aug 7.7 00:38:47 10° N 00:38:47 10° N 00:38:55 10° N visible
25 Aug 6.9 16:51:24 10° SSE 16:52:18 10° SSE 16:52:20 10° SSE visible
26 Aug 6.7 17:39:55 10° SSW 17:41:54 18° SSW 17:41:54 18° SSW visible
27 Aug 6.4 16:40:00 10° SSW 16:43:55 17° SSE 16:45:09 16° SE visible
27 Aug 7.4 18:31:15 10° SW 18:31:33 11° SW 18:31:33 11° SW visible
28 Aug 7.6 02:14:31 10° N 02:17:16 12° NNE 02:20:04 10° NE visible
28 Aug 5.7 17:30:37 10° SW 17:34:51 35° S 17:34:51 35° S visible
29 Aug 7.4 03:05:01 10° NNW 03:10:43 22° NNE 03:16:30 10° ENE visible
29 Aug 5.9 16:30:13 10° SSW 16:35:26 27° SSE 16:38:12 20° ESE visible
29 Aug 6.8 18:22:36 10° WSW 18:24:37 22° WSW 18:24:37 22° WSW visible
30 Aug 7.5 02:04:43 10° NNW 02:09:04 16° NNE 02:13:30 10° NE visible
30 Aug 4.7 17:21:38 10° SW 17:27:51 69° SSE 17:28:00 69° SE visible
31 Aug 7.6 01:05:00 10° N 01:07:18 12° NNE 01:09:40 10° NE visible
31 Aug 7.0 02:55:40 10° NNW 03:02:10 31° NNE 03:08:53 10° E visible
31 Aug 5.3 16:20:53 10° SW 16:26:52 44° SSE 16:31:24 17° E visible
31 Aug 6.4 18:14:16 10° WSW 18:17:49 32° W 18:17:49 32° W visible
01 Sep 7.2 01:55:12 10° NNW 02:00:40 22° NNE 02:06:20 10° ENE visible
01 Sep 4.9 17:12:57 10° WSW 17:19:15 75° NNW 17:21:13 45° NE visible
02 Sep 7.4 00:56:57 14° N 00:59:05 15° NNE 01:03:14 10° NE visible
02 Sep 6.4 02:46:29 10° NW 02:53:31 44° NNE 03:00:52 10° E visible
02 Sep 4.9 16:11:52 10° SW 16:18:15 71° SSE 16:24:28 10° ENE visible
02 Sep 6.4 18:06:20 10° W 18:11:02 30° NW 18:11:02 30° NW visible
